Time,TemperatureF,DewpointF,PressureIn,WindDirection,WindDirectionDegrees,WindSpeedMPH,WindSpeedGustMPH,Humidity,HourlyPrecipIn,Conditions,Clouds,dailyrainin,SolarRadiationWatts/m^2,SoftwareType,DateUTC
2013-07-01 00:00:00,68.6,65.9,29.82,SE,129,0.0,0.0,91,0.00,RA,SCT,0.00,0.0,WeatherDisplay:10.37,2013-07-01 04:00:00,
2013-07-01 00:05:00,68.6,65.9,29.82,SE,129,0.0,0.0,91,0.00,RA,SCT,0.00,0.0,WeatherDisplay:10.37,2013-07-01 04:05:00,
2013-07-01 00:10:00,68.7,66.0,29.82,SE,129,0.0,0.0,91,0.00,,SCT,0.00,0.0,WeatherDisplay:10.37,2013-07-01 04:10:00,
2013-07-01 00:20:00,68.7,66.0,29.82,SE,129,0.0,0.0,91,0.00,,SCT,0.00,0.0,WeatherDisplay:10.37,2013-07-01 04:20:00,
2013-07-01 00:25:00,68.7,66.0,29.82,SE,129,0.0,0.0,91,0.00,,SCT,0.00,0.0,WeatherDisplay:10.37,2013-07-01 04:25:00,
2013-07-01 00:30:00,68.6,65.9,29.82,SE,129,0.0,1.0,91,0.00,,SCT,0.00,0.0,WeatherDisplay:10.37,2013-07-01 04:30:00,
2013-07-01 00:35:00,68.6,65.9,29.82,SE,129,0.0,0.0,91,0.00,,SCT,0.00,0.0,WeatherDisplay:10.37,2013-07-01 04:35:00,
2013-07-01 00:40:00,68.6,65.9,29.82,SE,129,0.0,1.0,91,0.00,,SCT,0.00,0.0,WeatherDisplay:10.37,2013-07-01 04:40:00,
2013-07-01 00:45:00,68.5,65.8,29.82,SE,129,0.0,0.0,91,0.00,,SCT,0.00,0.0,WeatherDisplay:10.37,2013-07-01 04:45:00,
2013-07-01 00:50:00,68.4,65.7,29.82,SE,129,0.0,0.0,91,0.00,,SCT,0.00,0.0,WeatherDisplay:10.37,2013-07-01 04:50:00,
2013-07-01 00:55:00,68.3,65.6,29.82,SE,129,0.0,1.0,91,0.00,,SCT,0.00,0.0,WeatherDisplay:10.37,2013-07-01 04:55:00,
2013-07-01 01:00:00,68.2,65.5,29.82,SE,129,0.0,0.0,91,0.00,,SCT,0.00,0.0,WeatherDisplay:10.37,2013-07-01 05:00:00,
2013-07-01 01:05:00,68.0,65.3,29.82,SE,129,0.0,0.0,91,0.00,,SCT,0.00,0.0,WeatherDisplay:10.37,2013-07-01 05:05:00,
2013-07-01 01:10:00,67.9,65.2,29.82,SE,129,0.0,0.0,91,0.00,,SCT,0.00,0.0,WeatherDisplay:10.37,2013-07-01 05:10:00,
2013-07-01 01:15:00,67.8,65.1,29.82,SE,129,0.0,0.0,91,0.00,,SCT,0.00,0.0,WeatherDisplay:10.37,2013-07-01 05:15:00,
2013-07-01 01:20:00,67.7,65.0,29.82,SE,129,0.0,0.0,91,0.00,,SCT,0.00,0.0,WeatherDisplay:10.37,2013-07-01 05:20:00,
2013-07-01 01:25:00,67.6,64.9,29.82,SE,129,0.0,0.0,91,0.00,,SCT,0.00,0.0,WeatherDisplay:10.37,2013-07-01 05:25:00,
2013-07-01 01:30:00,67.5,64.8,29.82,SE,129,0.0,0.0,91,0.00,,SCT,0.00,0.0,WeatherDisplay:10.37,2013-07-01 05:30:00,
2013-07-01 01:35:00,67.3,64.6,29.82,SE,129,0.0,0.0,91,0.00,,SCT,0.00,0.0,WeatherDisplay:10.37,2013-07-01 05:35:00,
2013-07-01 01:40:00,67.1,64.4,29.82,SE,129,0.0,0.0,91,0.00,,SCT,0.00,0.0,WeatherDisplay:10.37,2013-07-01 05:40:00,
2013-07-01 01:45:00,67.0,64.3,29.81,SE,129,0.0,1.0,91,0.00,,SCT,0.00,0.0,WeatherDisplay:10.37,2013-07-01 05:45:00,
2013-07-01 01:50:00,66.9,64.2,29.81,SE,129,0.0,0.0,91,0.00,,SCT,0.00,0.0,WeatherDisplay:10.37,2013-07-01 05:50:00,
2013-07-01 01:55:00,66.8,64.1,29.81,SE,129,0.0,0.0,91,0.00,,SCT,0.00,0.0,WeatherDisplay:10.37,2013-07-01 05:55:00,
2013-07-01 02:00:00,66.7,64.0,29.81,SE,129,0.0,0.0,91,0.00,,SCT,0.00,0.0,WeatherDisplay:10.37,2013-07-01 06:00:00,
2013-07-01 02:05:00,66.6,63.9,29.81,SE,129,0.0,0.0,91,0.00,,SCT,0.00,0.0,WeatherDisplay:10.37,2013-07-01 06:05:00,
2013-07-01 02:10:00,66.6,63.9,29.81,SE,129,0.0,0.0,91,0.00,,SCT,0.00,0.0,WeatherDisplay:10.37,2013-07-01 06:10:00,
2013-07-01 02:15:00,66.5,63.8,29.81,SE,129,0.0,0.0,91,0.00,,SCT,0.00,0.0,WeatherDisplay:10.37,2013-07-01 06:15:00,
2013-07-01 02:20:00,66.5,63.8,29.82,SE,129,0.0,0.0,91,0.00,,SCT,0.00,0.0,WeatherDisplay:10.37,2013-07-01 06:20:00,
2013-07-01 02:30:00,66.6,64.2,29.81,SE,129,0.0,0.0,92,0.00,,SCT,0.00,0.0,WeatherDisplay:10.37,2013-07-01 06:30:00,
2013-07-01 02:35:00,66.7,64.3,29.81,SE,129,0.0,1.0,92,0.00,,SCT,0.00,0.0,WeatherDisplay:10.37,2013-07-01 06:35:00,
2013-07-01 02:40:00,66.7,64.3,29.81,SE,129,0.0,0.0,92,0.00,,SCT,0.00,0.0,WeatherDisplay:10.37,2013-07-01 06:40:00,
2013-07-01 02:45:00,66.7,64.3,29.81,SE,129,0.0,0.0,92,0.00,,SCT,0.00,0.0,WeatherDisplay:10.37,2013-07-01 06:45:00,
2013-07-01 02:50:00,66.7,64.3,29.81,SE,129,0.0,1.0,92,0.00,,SCT,0.00,0.0,WeatherDisplay:10.37,2013-07-01 06:50:00,
2013-07-01 03:00:00,66.6,64.2,29.80,SE,129,0.0,0.0,92,0.00,,SCT,0.00,0.0,WeatherDisplay:10.37,2013-07-01 07:00:00,
2013-07-01 03:05:00,66.6,64.2,29.80,SE,129,0.0,0.0,92,0.00,,SCT,0.00,0.0,WeatherDisplay:10.37,2013-07-01 07:05:00,
2013-07-01 03:10:00,66.6,64.2,29.80,SE,129,0.0,0.0,92,0.00,,SCT,0.00,0.0,WeatherDisplay:10.37,2013-07-01 07:10:00,
2013-07-01 03:15:00,66.6,64.2,29.80,SE,129,0.0,0.0,92,0.00,,SCT,0.00,0.0,WeatherDisplay:10.37,2013-07-01 07:15:00,
2013-07-01 03:20:00,66.6,64.2,29.80,SE,129,0.0,0.0,92,0.00,,SCT,0.00,0.0,WeatherDisplay:10.37,2013-07-01 07:20:00,
2013-07-01 03:25:00,66.7,64.3,29.80,SE,129,0.0,0.0,92,0.00,,SCT,0.00,0.0,WeatherDisplay:10.37,2013-07-01 07:25:00,
2013-07-01 03:30:00,66.8,64.4,29.80,SE,129,0.0,0.0,92,0.00,,SCT,0.00,0.0,WeatherDisplay:10.37,2013-07-01 07:30:00,
2013-07-01 03:35:00,66.9,64.5,29.80,SE,129,0.0,0.0,92,0.00,,SCT,0.00,0.0,WeatherDisplay:10.37,2013-07-01 07:35:00,
2013-07-01 03:40:00,67.0,64.6,29.80,SE,129,0.0,0.0,92,0.00,,SCT,0.00,0.0,WeatherDisplay:10.37,2013-07-01 07:40:00,
2013-07-01 03:45:00,67.0,64.6,29.80,SE,129,0.0,1.0,92,0.00,,SCT,0.00,0.0,WeatherDisplay:10.37,2013-07-01 07:45:00,
2013-07-01 03:50:00,67.1,64.7,29.81,SE,129,0.0,0.0,92,0.00,,SCT,0.00,0.0,WeatherDisplay:10.37,2013-07-01 07:50:00,
2013-07-01 03:55:00,67.1,64.7,29.81,SE,129,0.0,0.0,92,0.00,,SCT,0.00,0.0,WeatherDisplay:10.37,2013-07-01 07:55:00,
2013-07-01 04:00:00,67.1,64.7,29.81,SE,129,0.0,0.0,92,0.00,,SCT,0.00,0.0,WeatherDisplay:10.37,2013-07-01 08:00:00,
2013-07-01 04:05:00,67.1,64.7,29.81,SE,129,0.0,0.0,92,0.00,,SCT,0.00,0.0,WeatherDisplay:10.37,2013-07-01 08:05:00,
2013-07-01 04:10:00,67.1,64.7,29.81,SE,129,0.0,0.0,92,0.00,,SCT,0.00,0.0,WeatherDisplay:10.37,2013-07-01 08:10:00,
2013-07-01 04:15:00,67.2,64.8,29.81,SE,129,0.0,0.0,92,0.00,,SCT,0.00,0.0,WeatherDisplay:10.37,2013-07-01 08:15:00,
2013-07-01 04:20:00,67.3,64.9,29.81,SE,129,0.0,1.0,92,0.00,,SCT,0.00,0.0,WeatherDisplay:10.37,2013-07-01 08:20:00,
2013-07-01 04:25:00,67.4,65.0,29.81,SE,129,0.0,0.0,92,0.00,,SCT,0.00,0.0,WeatherDisplay:10.37,2013-07-01 08:25:00,
2013-07-01 04:30:00,67.4,65.0,29.81,SE,129,0.0,0.0,92,0.01,RA,SCT,0.01,0.0,WeatherDisplay:10.37,2013-07-01 08:30:00,
2013-07-01 04:35:00,67.4,65.0,29.81,SE,129,0.0,0.0,92,0.00,RA,SCT,0.01,0.0,WeatherDisplay:10.37,2013-07-01 08:35:00,
2013-07-01 04:40:00,67.4,65.0,29.82,SE,129,0.0,0.0,92,0.00,,SCT,0.01,0.0,WeatherDisplay:10.37,2013-07-01 08:40:00,
2013-07-01 04:45:00,67.5,65.1,29.81,SE,129,0.0,1.0,92,0.01,RA,SCT,0.02,0.0,WeatherDisplay:10.37,2013-07-01 08:45:00,
2013-07-01 04:50:00,67.6,65.2,29.81,SE,129,0.0,1.0,92,0.01,RA,SCT,0.03,0.0,WeatherDisplay:10.37,2013-07-01 08:50:00,
2013-07-01 04:55:00,67.6,65.2,29.81,SE,129,0.0,1.0,92,0.00,RA,SCT,0.03,0.0,WeatherDisplay:10.37,2013-07-01 08:55:00,
2013-07-01 05:00:00,67.7,65.3,29.81,SE,129,0.0,1.0,92,0.00,,SCT,0.03,0.0,WeatherDisplay:10.37,2013-07-01 09:00:00,
2013-07-01 05:05:00,67.7,65.3,29.81,SE,129,0.0,1.0,92,0.00,,SCT,0.03,0.0,WeatherDisplay:10.37,2013-07-01 09:05:00,
2013-07-01 05:10:00,67.7,65.3,29.81,SE,129,1.0,2.0,92,0.00,,SCT,0.03,0.0,WeatherDisplay:10.37,2013-07-01 09:10:00,
2013-07-01 05:15:00,67.7,65.3,29.81,SE,129,0.0,2.0,92,0.00,,SCT,0.03,0.0,WeatherDisplay:10.37,2013-07-01 09:15:00,
2013-07-01 05:20:00,67.6,65.2,29.82,SE,129,0.0,0.0,92,0.00,,SCT,0.03,0.0,WeatherDisplay:10.37,2013-07-01 09:20:00,
2013-07-01 05:25:00,67.6,65.2,29.82,SE,129,0.0,1.0,92,0.00,,SCT,0.03,0.0,WeatherDisplay:10.37,2013-07-01 09:25:00,
2013-07-01 05:30:00,67.6,65.2,29.82,SE,129,0.0,0.0,92,0.01,RA,SCT,0.04,0.0,WeatherDisplay:10.37,2013-07-01 09:30:00,
2013-07-01 05:40:00,67.7,65.3,29.82,SE,129,1.0,2.0,92,0.00,,SCT,0.04,0.0,WeatherDisplay:10.37,2013-07-01 09:40:00,
2013-07-01 05:45:00,67.8,65.4,29.81,SE,129,1.0,3.0,92,0.00,,SCT,0.04,0.0,WeatherDisplay:10.37,2013-07-01 09:45:00,
2013-07-01 05:50:00,67.7,65.3,29.82,SE,129,0.0,3.0,92,0.00,,SCT,0.04,0.0,WeatherDisplay:10.37,2013-07-01 09:50:00,
2013-07-01 05:55:00,67.6,65.2,29.82,SE,129,1.0,3.0,92,0.00,,SCT,0.04,0.0,WeatherDisplay:10.37,2013-07-01 09:55:00,
2013-07-01 06:00:00,67.6,65.2,29.81,SE,129,1.0,3.0,92,0.00,,SCT,0.04,0.0,WeatherDisplay:10.37,2013-07-01 10:00:00,
2013-07-01 06:05:00,67.6,65.2,29.82,SE,129,0.0,3.0,92,0.00,,SCT,0.04,0.0,WeatherDisplay:10.37,2013-07-01 10:05:00,
2013-07-01 06:15:00,67.5,65.4,29.83,SE,129,0.0,0.0,93,0.00,,SCT,0.04,0.0,WeatherDisplay:10.37,2013-07-01 10:15:00,
2013-07-01 06:20:00,67.5,65.4,29.83,SE,129,0.0,1.0,93,0.00,,SCT,0.04,0.0,WeatherDisplay:10.37,2013-07-01 10:20:00,
2013-07-01 06:25:00,67.5,65.4,29.83,SE,129,0.0,0.0,93,0.00,,SCT,0.04,0.0,WeatherDisplay:10.37,2013-07-01 10:25:00,
2013-07-01 06:30:00,67.5,65.4,29.83,SE,129,0.0,1.0,93,0.00,,SCT,0.04,0.0,WeatherDisplay:10.37,2013-07-01 10:30:00,
2013-07-01 06:35:00,67.5,65.4,29.83,SE,129,0.0,1.0,93,0.00,,SCT,0.04,0.0,WeatherDisplay:10.37,2013-07-01 10:35:00,
2013-07-01 06:40:00,67.6,65.5,29.84,SE,128,0.0,0.0,93,0.00,,SCT,0.04,0.0,WeatherDisplay:10.37,2013-07-01 10:40:00,
2013-07-01 06:45:00,67.6,65.5,29.84,SSE,159,0.0,1.0,93,0.00,,SCT,0.04,0.0,WeatherDisplay:10.37,2013-07-01 10:45:00,
2013-07-01 06:50:00,67.6,65.5,29.85,South,183,0.0,0.0,93,0.00,,SCT,0.04,0.0,WeatherDisplay:10.37,2013-07-01 10:50:00,
2013-07-01 06:55:00,67.6,65.5,29.85,South,183,0.0,1.0,93,0.00,,SCT,0.04,5.0,WeatherDisplay:10.37,2013-07-01 10:55:00,
2013-07-01 07:00:00,67.6,65.5,29.85,South,183,0.0,1.0,93,0.00,,SCT,0.04,5.0,WeatherDisplay:10.37,2013-07-01 11:00:00,
2013-07-01 07:05:00,67.6,65.5,29.85,South,182,0.0,0.0,93,0.00,,SCT,0.04,5.0,WeatherDisplay:10.37,2013-07-01 11:05:00,
2013-07-01 07:10:00,67.6,65.5,29.85,South,184,0.0,0.0,93,0.00,,SCT,0.04,7.0,WeatherDisplay:10.37,2013-07-01 11:10:00,
2013-07-01 07:15:00,67.6,65.5,29.85,South,187,0.0,0.0,93,0.00,,SCT,0.04,18.0,WeatherDisplay:10.37,2013-07-01 11:15:00,
2013-07-01 07:20:00,67.6,65.5,29.85,South,187,0.0,0.0,93,0.00,,SCT,0.04,19.0,WeatherDisplay:10.37,2013-07-01 11:20:00,
2013-07-01 07:25:00,67.6,65.5,29.85,South,187,0.0,0.0,93,0.00,,SCT,0.04,12.0,WeatherDisplay:10.37,2013-07-01 11:25:00,
2013-07-01 07:30:00,67.6,65.5,29.85,South,187,0.0,0.0,93,0.00,,SCT,0.04,21.0,WeatherDisplay:10.37,2013-07-01 11:30:00,
2013-07-01 07:35:00,67.7,65.6,29.85,South,184,0.0,1.0,93,0.00,,SCT,0.04,18.0,WeatherDisplay:10.37,2013-07-01 11:35:00,
2013-07-01 07:40:00,67.7,65.6,29.85,South,179,0.0,2.0,93,0.00,,SCT,0.04,37.0,WeatherDisplay:10.37,2013-07-01 11:40:00,
2013-07-01 07:45:00,67.8,65.7,29.85,South,183,0.0,0.0,93,0.00,,SCT,0.04,32.0,WeatherDisplay:10.37,2013-07-01 11:45:00,
2013-07-01 07:50:00,67.8,65.7,29.85,South,185,0.0,1.0,93,0.00,,SCT,0.04,40.0,WeatherDisplay:10.37,2013-07-01 11:50:00,
2013-07-01 07:55:00,67.9,65.8,29.85,South,186,0.0,0.0,93,0.00,,SCT,0.04,67.0,WeatherDisplay:10.37,2013-07-01 11:55:00,
2013-07-01 08:00:00,67.9,65.8,29.85,South,186,0.0,0.0,93,0.00,BKN,SCT,0.04,86.0,WeatherDisplay:10.37,2013-07-01 12:00:00,
2013-07-01 08:05:00,68.1,66.0,29.85,SSW,193,0.0,2.0,93,0.00,BKN,SCT,0.04,93.0,WeatherDisplay:10.37,2013-07-01 12:05:00,
2013-07-01 08:10:00,68.1,66.0,29.85,SSW,212,0.0,1.0,93,0.00,BKN,SCT,0.04,104.0,WeatherDisplay:10.37,2013-07-01 12:10:00,
2013-07-01 08:15:00,68.3,66.2,29.85,SSW,212,0.0,2.0,93,0.00,BKN,SCT,0.04,79.0,WeatherDisplay:10.37,2013-07-01 12:15:00,
2013-07-01 08:20:00,68.3,66.2,29.85,SW,215,0.0,0.0,93,0.00,BKN,SCT,0.04,134.0,WeatherDisplay:10.37,2013-07-01 12:20:00,
2013-07-01 08:25:00,68.5,66.4,29.85,SSW,210,0.0,1.0,93,0.00,BKN,SCT,0.04,111.0,WeatherDisplay:10.37,2013-07-01 12:25:00,
2013-07-01 08:30:00,68.6,66.5,29.85,SSE,168,1.0,2.0,93,0.00,BKN,SCT,0.04,97.0,WeatherDisplay:10.37,2013-07-01 12:30:00,
2013-07-01 08:35:00,68.8,66.7,29.85,SSE,168,1.0,2.0,93,0.00,BKN,SCT,0.04,116.0,WeatherDisplay:10.37,2013-07-01 12:35:00,
2013-07-01 08:40:00,68.9,66.8,29.85,South,169,1.0,3.0,93,0.00,BKN,SCT,0.04,141.0,WeatherDisplay:10.37,2013-07-01 12:40:00,
2013-07-01 08:45:00,69.0,66.9,29.85,South,169,0.0,2.0,93,0.00,BKN,SCT,0.04,121.0,WeatherDisplay:10.37,2013-07-01 12:45:00,
2013-07-01 08:50:00,69.1,67.0,29.85,South,172,0.0,2.0,93,0.00,BKN,SCT,0.04,137.0,WeatherDisplay:10.37,2013-07-01 12:50:00,
2013-07-01 08:55:00,69.3,67.2,29.85,South,177,0.0,1.0,93,0.00,BKN,SCT,0.04,167.0,WeatherDisplay:10.37,2013-07-01 12:55:00,
2013-07-01 09:00:00,69.4,67.3,29.86,South,182,1.0,3.0,93,0.00,BKN,SCT,0.04,135.0,WeatherDisplay:10.37,2013-07-01 13:00:00,
2013-07-01 09:10:00,69.6,67.5,29.87,South,183,1.0,3.0,93,0.00,BKN,SCT,0.04,102.0,WeatherDisplay:10.37,2013-07-01 13:10:00,
2013-07-01 09:15:00,69.7,67.6,29.87,South,183,2.0,4.0,93,0.00,OVC,SCT,0.04,105.0,WeatherDisplay:10.37,2013-07-01 13:15:00,
2013-07-01 09:20:00,69.7,67.6,29.87,South,183,2.0,4.0,93,0.00,OVC,SCT,0.04,113.0,WeatherDisplay:10.37,2013-07-01 13:20:00,
2013-07-01 09:25:00,69.7,67.6,29.87,South,183,0.0,2.0,93,0.00,OVC,SCT,0.04,134.0,WeatherDisplay:10.37,2013-07-01 13:25:00,
2013-07-01 09:30:00,69.7,67.6,29.87,South,183,0.0,3.0,93,0.00,OVC,SCT,0.04,144.0,WeatherDisplay:10.37,2013-07-01 13:30:00,
2013-07-01 09:35:00,69.8,67.7,29.87,South,185,0.0,3.0,93,0.00,BKN,SCT,0.04,171.0,WeatherDisplay:10.37,2013-07-01 13:35:00,
2013-07-01 09:40:00,69.8,67.7,29.88,South,176,0.0,3.0,93,0.00,BKN,SCT,0.04,185.0,WeatherDisplay:10.37,2013-07-01 13:40:00,
2013-07-01 09:45:00,69.9,67.8,29.88,South,177,0.0,2.0,93,0.00,BKN,SCT,0.04,186.0,WeatherDisplay:10.37,2013-07-01 13:45:00,
2013-07-01 09:50:00,70.1,68.0,29.88,SSW,197,0.0,3.0,93,0.00,BKN,SCT,0.04,162.0,WeatherDisplay:10.37,2013-07-01 13:50:00,
2013-07-01 09:55:00,70.2,68.1,29.88,SSW,202,1.0,3.0,93,0.00,BKN,SCT,0.04,183.0,WeatherDisplay:10.37,2013-07-01 13:55:00,
2013-07-01 10:00:00,70.3,68.2,29.88,SSW,207,0.0,1.0,93,0.00,BKN,SCT,0.04,176.0,WeatherDisplay:10.37,2013-07-01 14:00:00,
2013-07-01 10:05:00,70.4,68.3,29.88,SSW,207,0.0,1.0,93,0.00,BKN,SCT,0.04,220.0,WeatherDisplay:10.37,2013-07-01 14:05:00,
2013-07-01 10:10:00,70.6,68.5,29.88,SSW,207,0.0,3.0,93,0.00,BKN,SCT,0.04,241.0,WeatherDisplay:10.37,2013-07-01 14:10:00,
2013-07-01 10:15:00,70.7,68.6,29.88,SSW,207,1.0,3.0,93,0.00,BKN,SCT,0.04,271.0,WeatherDisplay:10.37,2013-07-01 14:15:00,
2013-07-01 10:20:00,70.9,68.5,29.88,SSW,207,0.0,1.0,92,0.00,BKN,SCT,0.04,343.0,WeatherDisplay:10.37,2013-07-01 14:20:00,
2013-07-01 10:25:00,71.2,69.1,29.88,SSW,211,0.0,2.0,93,0.00,BKN,SCT,0.04,345.0,WeatherDisplay:10.37,2013-07-01 14:25:00,
2013-07-01 10:30:00,71.4,69.0,29.88,SSW,211,1.0,4.0,92,0.00,BKN,SCT,0.04,301.0,WeatherDisplay:10.37,2013-07-01 14:30:00,
2013-07-01 10:35:00,71.6,69.2,29.88,SSW,212,0.0,3.0,92,0.00,BKN,SCT,0.04,285.0,WeatherDisplay:10.37,2013-07-01 14:35:00,
2013-07-01 10:40:00,71.9,69.4,29.88,SSW,213,1.0,3.0,92,0.00,BKN,SCT,0.04,325.0,WeatherDisplay:10.37,2013-07-01 14:40:00,
2013-07-01 10:45:00,72.1,69.6,29.88,SW,216,1.0,3.0,92,0.00,BKN,SCT,0.04,301.0,WeatherDisplay:10.37,2013-07-01 14:45:00,
2013-07-01 10:50:00,72.3,69.5,29.89,SW,217,1.0,4.0,91,0.00,BKN,SCT,0.04,388.0,WeatherDisplay:10.37,2013-07-01 14:50:00,
2013-07-01 10:55:00,72.5,69.7,29.89,SW,224,1.0,6.0,91,0.00,BKN,SCT,0.04,376.0,WeatherDisplay:10.37,2013-07-01 14:55:00,
2013-07-01 11:00:00,72.8,69.7,29.89,SW,226,0.0,5.0,90,0.00,BKN,SCT,0.04,276.0,WeatherDisplay:10.37,2013-07-01 15:00:00,
2013-07-01 11:05:00,73.1,70.0,29.89,SW,227,1.0,3.0,90,0.00,BKN,SCT,0.04,308.0,WeatherDisplay:10.37,2013-07-01 15:05:00,
2013-07-01 11:15:00,73.7,69.9,29.88,SW,227,1.0,4.0,88,0.00,SCT,SCT,0.04,1169.0,WeatherDisplay:10.37,2013-07-01 15:15:00,
2013-07-01 11:20:00,74.2,70.1,29.88,SW,227,1.0,3.0,87,0.00,SCT,SCT,0.04,575.0,WeatherDisplay:10.37,2013-07-01 15:20:00,
2013-07-01 11:25:00,74.6,69.8,29.88,SW,227,1.0,3.0,85,0.00,SCT,SCT,0.04,339.0,WeatherDisplay:10.37,2013-07-01 15:25:00,
2013-07-01 11:30:00,75.0,69.8,29.88,SW,226,1.0,4.0,84,0.00,SCT,SCT,0.04,954.0,WeatherDisplay:10.37,2013-07-01 15:30:00,
2013-07-01 11:35:00,75.7,70.2,29.88,SSW,210,1.0,5.0,83,0.00,FEW,SCT,0.04,969.0,WeatherDisplay:10.37,2013-07-01 15:35:00,
2013-07-01 11:40:00,76.2,71.0,29.88,SSW,203,1.0,5.0,84,0.00,CLR,SCT,0.04,1192.0,WeatherDisplay:10.37,2013-07-01 15:40:00,
2013-07-01 11:45:00,76.5,69.1,29.88,SSE,152,2.0,7.0,78,0.00,FEW,SCT,0.04,503.0,WeatherDisplay:10.37,2013-07-01 15:45:00,
2013-07-01 11:50:00,76.9,70.2,29.88,SSE,151,3.0,5.0,80,0.00,SCT,SCT,0.04,742.0,WeatherDisplay:10.37,2013-07-01 15:50:00,
2013-07-01 11:55:00,77.3,70.2,29.88,SSE,157,1.0,4.0,79,0.00,SCT,SCT,0.04,390.0,WeatherDisplay:10.37,2013-07-01 15:55:00,
2013-07-01 12:00:00,77.5,69.7,29.88,SSE,158,1.0,5.0,77,0.00,BKN,SCT,0.04,411.0,WeatherDisplay:10.37,2013-07-01 16:00:00,
2013-07-01 12:05:00,77.6,69.0,29.87,SSE,160,1.0,6.0,75,0.00,BKN,SCT,0.04,297.0,WeatherDisplay:10.37,2013-07-01 16:05:00,
2013-07-01 12:10:00,77.6,69.4,29.87,SSE,160,0.0,3.0,76,0.00,BKN,SCT,0.04,991.0,WeatherDisplay:10.37,2013-07-01 16:10:00,
2013-07-01 12:15:00,78.0,70.2,29.87,SSE,160,2.0,4.0,77,0.00,SCT,SCT,0.04,1178.0,WeatherDisplay:10.37,2013-07-01 16:15:00,
2013-07-01 12:20:00,78.6,70.4,29.87,SSE,159,0.0,4.0,76,0.00,CLR,SCT,0.04,1002.0,WeatherDisplay:10.37,2013-07-01 16:20:00,
2013-07-01 12:25:00,78.8,70.2,29.87,SSE,155,0.0,5.0,75,0.00,CLR,SCT,0.04,1078.0,WeatherDisplay:10.37,2013-07-01 16:25:00,
2013-07-01 12:30:00,79.2,70.1,29.87,SSE,152,2.0,4.0,74,0.00,CLR,SCT,0.04,1071.0,WeatherDisplay:10.37,2013-07-01 16:30:00,
2013-07-01 12:35:00,79.5,70.1,29.87,SSE,158,1.0,3.0,73,0.00,CLR,SCT,0.04,1067.0,WeatherDisplay:10.37,2013-07-01 16:35:00,
2013-07-01 12:40:00,79.8,69.6,29.87,WSW,238,2.0,7.0,71,0.00,CLR,SCT,0.04,1067.0,WeatherDisplay:10.37,2013-07-01 16:40:00,
2013-07-01 12:50:00,80.5,69.8,29.87,WSW,250,2.0,7.0,70,0.00,CLR,SCT,0.04,1035.0,WeatherDisplay:10.37,2013-07-01 16:50:00,
2013-07-01 12:55:00,80.6,70.3,29.87,WSW,248,2.0,4.0,71,0.00,CLR,SCT,0.04,990.0,WeatherDisplay:10.37,2013-07-01 16:55:00,
2013-07-01 13:00:00,80.9,68.5,29.86,WSW,248,2.0,7.0,66,0.00,FEW,SCT,0.04,884.0,WeatherDisplay:10.37,2013-07-01 17:00:00,
2013-07-01 13:05:00,81.0,69.0,29.87,WSW,248,2.0,8.0,67,0.00,FEW,SCT,0.04,1034.0,WeatherDisplay:10.37,2013-07-01 17:05:00,
2013-07-01 13:15:00,81.3,69.3,29.86,WSW,243,1.0,5.0,67,0.00,FEW,SCT,0.04,847.0,WeatherDisplay:10.37,2013-07-01 17:15:00,
2013-07-01 13:20:00,81.4,69.9,29.86,WSW,238,3.0,7.0,68,0.00,FEW,SCT,0.04,1037.0,WeatherDisplay:10.37,2013-07-01 17:20:00,
2013-07-01 13:25:00,81.7,69.6,29.87,SW,236,2.0,5.0,67,0.00,FEW,SCT,0.04,1085.0,WeatherDisplay:10.37,2013-07-01 17:25:00,
2013-07-01 13:30:00,81.5,69.0,29.86,South,179,3.0,6.0,66,0.00,FEW,SCT,0.04,773.0,WeatherDisplay:10.37,2013-07-01 17:30:00,
2013-07-01 13:35:00,81.4,69.4,29.86,SE,145,2.0,5.0,67,0.00,SCT,SCT,0.04,401.0,WeatherDisplay:10.37,2013-07-01 17:35:00,
2013-07-01 13:40:00,81.4,69.8,29.86,SSE,149,5.0,8.0,68,0.00,SCT,SCT,0.04,552.0,WeatherDisplay:10.37,2013-07-01 17:40:00,
2013-07-01 13:45:00,81.4,69.4,29.86,SSE,155,0.0,3.0,67,0.00,SCT,SCT,0.04,580.0,WeatherDisplay:10.37,2013-07-01 17:45:00,
2013-07-01 13:50:00,81.5,69.0,29.86,SSE,150,1.0,7.0,66,0.00,SCT,SCT,0.04,949.0,WeatherDisplay:10.37,2013-07-01 17:50:00,
2013-07-01 13:55:00,81.7,70.1,29.86,SE,146,1.0,4.0,68,0.00,SCT,SCT,0.04,722.0,WeatherDisplay:10.37,2013-07-01 17:55:00,
2013-07-01 14:00:00,81.6,68.7,29.86,SE,139,1.0,5.0,65,0.00,SCT,SCT,0.04,536.0,WeatherDisplay:10.37,2013-07-01 18:00:00,
2013-07-01 14:05:00,81.5,69.0,29.85,SE,137,1.0,5.0,66,0.00,SCT,SCT,0.04,631.0,WeatherDisplay:10.37,2013-07-01 18:05:00,
2013-07-01 14:10:00,81.5,69.5,29.85,SE,136,1.0,5.0,67,0.00,SCT,SCT,0.04,1007.0,WeatherDisplay:10.37,2013-07-01 18:10:00,
2013-07-01 14:15:00,81.6,69.6,29.85,SE,135,2.0,5.0,67,0.00,FEW,SCT,0.04,942.0,WeatherDisplay:10.37,2013-07-01 18:15:00,
2013-07-01 14:20:00,81.6,69.6,29.85,SE,135,1.0,5.0,67,0.00,SCT,SCT,0.04,635.0,WeatherDisplay:10.37,2013-07-01 18:20:00,
2013-07-01 14:25:00,81.7,69.7,29.85,SSE,158,2.0,5.0,67,0.00,SCT,SCT,0.04,466.0,WeatherDisplay:10.37,2013-07-01 18:25:00,
2013-07-01 14:30:00,81.9,70.3,29.86,South,176,3.0,7.0,68,0.00,SCT,SCT,0.04,870.0,WeatherDisplay:10.37,2013-07-01 18:30:00,
2013-07-01 14:35:00,82.0,70.0,29.86,SSE,151,1.0,6.0,67,0.00,FEW,SCT,0.04,898.0,WeatherDisplay:10.37,2013-07-01 18:35:00,
2013-07-01 14:40:00,82.1,70.9,29.86,SE,140,3.0,6.0,69,0.00,FEW,SCT,0.04,940.0,WeatherDisplay:10.37,2013-07-01 18:40:00,
2013-07-01 14:45:00,82.1,70.9,29.86,SE,125,3.0,9.0,69,0.00,FEW,SCT,0.04,589.0,WeatherDisplay:10.37,2013-07-01 18:45:00,
2013-07-01 14:50:00,81.8,70.2,29.86,ESE,110,5.0,7.0,68,0.00,FEW,SCT,0.04,341.0,WeatherDisplay:10.37,2013-07-01 18:50:00,
2013-07-01 15:00:00,81.4,70.2,29.86,ESE,110,3.0,7.0,69,0.00,BKN,SCT,0.04,281.0,WeatherDisplay:10.37,2013-07-01 19:00:00,
2013-07-01 15:05:00,81.0,70.7,29.85,ESE,108,2.0,4.0,71,0.00,BKN,SCT,0.04,302.0,WeatherDisplay:10.37,2013-07-01 19:05:00,
2013-07-01 15:10:00,80.7,70.4,29.86,ESE,107,1.0,4.0,71,0.00,BKN,SCT,0.04,360.0,WeatherDisplay:10.37,2013-07-01 19:10:00,
2013-07-01 15:15:00,80.6,69.9,29.86,ESE,119,2.0,7.0,70,0.00,BKN,SCT,0.04,448.0,WeatherDisplay:10.37,2013-07-01 19:15:00,
2013-07-01 15:20:00,80.6,70.3,29.85,SE,135,2.0,6.0,71,0.00,BKN,SCT,0.04,671.0,WeatherDisplay:10.37,2013-07-01 19:20:00,
2013-07-01 15:25:00,80.9,70.2,29.85,SE,136,2.0,6.0,70,0.00,SCT,SCT,0.04,947.0,WeatherDisplay:10.37,2013-07-01 19:25:00,
2013-07-01 15:30:00,81.2,69.6,29.85,SE,137,5.0,8.0,68,0.00,CLR,SCT,0.04,900.0,WeatherDisplay:10.37,2013-07-01 19:30:00,
2013-07-01 15:40:00,82.0,70.0,29.85,SE,129,7.0,10.0,67,0.00,CLR,SCT,0.04,1111.0,WeatherDisplay:10.37,2013-07-01 19:40:00,
2013-07-01 15:45:00,82.0,69.5,29.85,SE,132,5.0,10.0,66,0.00,CLR,SCT,0.04,1049.0,WeatherDisplay:10.37,2013-07-01 19:45:00,
2013-07-01 15:50:00,82.1,70.5,29.85,SE,132,5.0,10.0,68,0.00,FEW,SCT,0.04,417.0,WeatherDisplay:10.37,2013-07-01 19:50:00,
2013-07-01 15:55:00,81.8,70.6,29.84,SE,129,5.0,10.0,69,0.00,SCT,SCT,0.04,346.0,WeatherDisplay:10.37,2013-07-01 19:55:00,
2013-07-01 16:00:00,81.2,70.5,29.84,ESE,121,7.0,10.0,70,0.00,BKN,SCT,0.04,464.0,WeatherDisplay:10.37,2013-07-01 20:00:00,
2013-07-01 16:05:00,80.9,70.2,29.85,ESE,111,0.0,8.0,70,0.00,BKN,SCT,0.04,309.0,WeatherDisplay:10.37,2013-07-01 20:05:00,
2013-07-01 16:10:00,80.8,70.1,29.85,ESE,116,5.0,9.0,70,0.00,BKN,SCT,0.04,341.0,WeatherDisplay:10.37,2013-07-01 20:10:00,
2013-07-01 16:15:00,80.5,70.6,29.85,ESE,102,3.0,9.0,72,0.00,BKN,SCT,0.04,258.0,WeatherDisplay:10.37,2013-07-01 20:15:00,
2013-07-01 16:20:00,80.2,70.4,29.86,ESE,110,3.0,9.0,72,0.00,BKN,SCT,0.04,206.0,WeatherDisplay:10.37,2013-07-01 20:20:00,
2013-07-01 16:25:00,79.9,70.5,29.86,ESE,122,2.0,7.0,73,0.00,BKN,SCT,0.04,320.0,WeatherDisplay:10.37,2013-07-01 20:25:00,
2013-07-01 16:30:00,79.7,70.3,29.86,ESE,123,5.0,9.0,73,0.00,BKN,SCT,0.04,251.0,WeatherDisplay:10.37,2013-07-01 20:30:00,
2013-07-01 16:35:00,79.5,70.1,29.86,SE,125,2.0,8.0,73,0.00,BKN,SCT,0.04,214.0,WeatherDisplay:10.37,2013-07-01 20:35:00,
2013-07-01 16:40:00,79.3,70.3,29.86,ESE,119,2.0,5.0,74,0.00,BKN,SCT,0.04,213.0,WeatherDisplay:10.37,2013-07-01 20:40:00,
2013-07-01 16:45:00,79.0,69.6,29.86,ESE,113,3.0,8.0,73,0.00,BKN,SCT,0.04,250.0,WeatherDisplay:10.37,2013-07-01 20:45:00,
2013-07-01 16:50:00,78.9,69.9,29.86,ESE,114,2.0,7.0,74,0.00,BKN,SCT,0.04,244.0,WeatherDisplay:10.37,2013-07-01 20:50:00,
2013-07-01 16:55:00,78.7,69.8,29.86,ESE,113,2.0,7.0,74,0.00,BKN,SCT,0.04,264.0,WeatherDisplay:10.37,2013-07-01 20:55:00,
2013-07-01 17:00:00,78.7,70.1,29.86,ESE,113,2.0,5.0,75,0.00,BKN,SCT,0.04,345.0,WeatherDisplay:10.37,2013-07-01 21:00:00,
2013-07-01 17:05:00,78.8,70.6,29.86,ESE,116,5.0,7.0,76,0.00,SCT,SCT,0.04,315.0,WeatherDisplay:10.37,2013-07-01 21:05:00,
2013-07-01 17:10:00,78.9,70.3,29.86,ESE,116,2.0,8.0,75,0.00,SCT,SCT,0.04,278.0,WeatherDisplay:10.37,2013-07-01 21:10:00,
2013-07-01 17:15:00,79.0,70.4,29.86,ESE,123,3.0,7.0,75,0.00,BKN,SCT,0.04,264.0,WeatherDisplay:10.37,2013-07-01 21:15:00,
2013-07-01 17:20:00,78.9,69.5,29.86,SE,129,2.0,8.0,73,0.00,BKN,SCT,0.04,283.0,WeatherDisplay:10.37,2013-07-01 21:20:00,
2013-07-01 17:25:00,78.9,69.5,29.86,ESE,119,2.0,9.0,73,0.00,SCT,SCT,0.04,360.0,WeatherDisplay:10.37,2013-07-01 21:25:00,
2013-07-01 17:30:00,79.0,70.0,29.86,ESE,107,1.0,4.0,74,0.00,SCT,SCT,0.04,271.0,WeatherDisplay:10.37,2013-07-01 21:30:00,
2013-07-01 17:35:00,79.1,70.1,29.86,ESE,108,0.0,3.0,74,0.00,SCT,SCT,0.04,237.0,WeatherDisplay:10.37,2013-07-01 21:35:00,
2013-07-01 17:40:00,79.2,70.2,29.86,ESE,117,3.0,6.0,74,0.00,BKN,SCT,0.04,288.0,WeatherDisplay:10.37,2013-07-01 21:40:00,
2013-07-01 17:45:00,79.2,70.2,29.86,ESE,118,2.0,8.0,74,0.00,SCT,SCT,0.04,387.0,WeatherDisplay:10.37,2013-07-01 21:45:00,
2013-07-01 17:50:00,79.4,70.4,29.86,ESE,120,1.0,4.0,74,0.00,SCT,SCT,0.04,316.0,WeatherDisplay:10.37,2013-07-01 21:50:00,
2013-07-01 17:55:00,79.5,70.5,29.86,ESE,121,3.0,8.0,74,0.00,SCT,SCT,0.04,394.0,WeatherDisplay:10.37,2013-07-01 21:55:00,
2013-07-01 18:00:00,79.7,71.1,29.85,ESE,120,1.0,7.0,75,0.00,FEW,SCT,0.04,497.0,WeatherDisplay:10.37,2013-07-01 22:00:00,
2013-07-01 18:05:00,79.9,71.2,29.85,SE,126,3.0,8.0,75,0.00,FEW,SCT,0.04,229.0,WeatherDisplay:10.37,2013-07-01 22:05:00,
2013-07-01 18:10:00,79.8,70.4,29.86,SE,126,6.0,12.0,73,0.00,SCT,SCT,0.04,429.0,WeatherDisplay:10.37,2013-07-01 22:10:00,
2013-07-01 18:15:00,79.7,70.3,29.86,SE,134,5.0,12.0,73,0.00,SCT,SCT,0.04,255.0,WeatherDisplay:10.37,2013-07-01 22:15:00,
2013-07-01 18:20:00,79.7,70.7,29.86,SE,134,2.0,7.0,74,0.00,SCT,SCT,0.04,258.0,WeatherDisplay:10.37,2013-07-01 22:20:00,
2013-07-01 18:25:00,79.8,70.8,29.86,ESE,118,1.0,5.0,74,0.00,FEW,SCT,0.04,515.0,WeatherDisplay:10.37,2013-07-01 22:25:00,
2013-07-01 18:30:00,80.0,71.3,29.86,ESE,121,3.0,7.0,75,0.00,CLR,SCT,0.04,517.0,WeatherDisplay:10.37,2013-07-01 22:30:00,
2013-07-01 18:35:00,80.1,71.5,29.86,SE,130,5.0,9.0,75,0.00,FEW,SCT,0.04,216.0,WeatherDisplay:10.37,2013-07-01 22:35:00,
2013-07-01 18:40:00,80.1,71.5,29.86,SE,124,3.0,8.0,75,0.00,SCT,SCT,0.04,165.0,WeatherDisplay:10.37,2013-07-01 22:40:00,
2013-07-01 18:45:00,80.0,71.4,29.87,ESE,121,5.0,10.0,75,0.00,SCT,SCT,0.04,130.0,WeatherDisplay:10.37,2013-07-01 22:45:00,
2013-07-01 18:50:00,79.6,71.0,29.87,SE,126,6.0,9.0,75,0.00,BKN,SCT,0.04,104.0,WeatherDisplay:10.37,2013-07-01 22:50:00,
2013-07-01 18:55:00,79.3,70.7,29.87,ESE,122,5.0,10.0,75,0.00,BKN,SCT,0.04,104.0,WeatherDisplay:10.37,2013-07-01 22:55:00,
2013-07-01 19:00:00,78.9,70.3,29.87,SE,124,2.0,9.0,75,0.00,BKN,SCT,0.04,160.0,WeatherDisplay:10.37,2013-07-01 23:00:00,
2013-07-01 19:05:00,78.7,70.5,29.87,ESE,122,3.0,9.0,76,0.00,SCT,SCT,0.04,330.0,WeatherDisplay:10.37,2013-07-01 23:05:00,
2013-07-01 19:10:00,78.7,70.5,29.87,ESE,114,3.0,8.0,76,0.00,SCT,SCT,0.04,83.0,WeatherDisplay:10.37,2013-07-01 23:10:00,
2013-07-01 19:15:00,78.4,69.8,29.87,ESE,122,7.0,12.0,75,0.00,BKN,SCT,0.04,79.0,WeatherDisplay:10.37,2013-07-01 23:15:00,
2013-07-01 19:20:00,78.2,70.0,29.87,SE,128,6.0,10.0,76,0.00,BKN,SCT,0.04,65.0,WeatherDisplay:10.37,2013-07-01 23:20:00,
2013-07-01 19:25:00,78.1,69.9,29.87,SE,127,2.0,9.0,76,0.00,BKN,SCT,0.04,72.0,WeatherDisplay:10.37,2013-07-01 23:25:00,
2013-07-01 19:35:00,77.9,70.1,29.88,ESE,121,2.0,7.0,77,0.00,SCT,SCT,0.04,100.0,WeatherDisplay:10.37,2013-07-01 23:35:00,
2013-07-01 19:40:00,77.9,70.1,29.88,SE,125,0.0,4.0,77,0.00,SCT,SCT,0.04,102.0,WeatherDisplay:10.37,2013-07-01 23:40:00,
2013-07-01 19:45:00,77.9,70.1,29.87,SE,146,3.0,10.0,77,0.00,SCT,SCT,0.04,109.0,WeatherDisplay:10.37,2013-07-01 23:45:00,
2013-07-01 19:50:00,77.9,70.1,29.88,SE,142,3.0,7.0,77,0.00,SCT,SCT,0.04,69.0,WeatherDisplay:10.37,2013-07-01 23:50:00,
2013-07-01 19:55:00,77.8,70.4,29.87,ESE,111,6.0,10.0,78,0.00,BKN,SCT,0.04,51.0,WeatherDisplay:10.37,2013-07-01 23:55:00,
2013-07-01 20:00:00,77.6,70.2,29.87,ESE,105,5.0,8.0,78,0.00,BKN,SCT,0.04,42.0,WeatherDisplay:10.37,2013-07-02 00:00:00,
2013-07-01 20:05:00,77.5,70.1,29.88,ESE,109,2.0,7.0,78,0.00,BKN,SCT,0.04,35.0,WeatherDisplay:10.37,2013-07-02 00:05:00,
2013-07-01 20:10:00,77.4,70.0,29.88,ESE,111,2.0,8.0,78,0.00,BKN,SCT,0.04,30.0,WeatherDisplay:10.37,2013-07-02 00:10:00,
2013-07-01 20:15:00,77.2,70.2,29.88,ESE,113,5.0,7.0,79,0.00,BKN,SCT,0.04,21.0,WeatherDisplay:10.37,2013-07-02 00:15:00,
2013-07-01 20:20:00,77.1,70.1,29.88,ESE,116,0.0,4.0,79,0.00,,SCT,0.04,14.0,WeatherDisplay:10.37,2013-07-02 00:20:00,
2013-07-01 20:25:00,77.0,70.4,29.88,ESE,112,5.0,9.0,80,0.00,,SCT,0.04,12.0,WeatherDisplay:10.37,2013-07-02 00:25:00,
2013-07-01 20:30:00,76.8,70.5,29.88,ESE,108,1.0,5.0,81,0.00,,SCT,0.04,9.0,WeatherDisplay:10.37,2013-07-02 00:30:00,
2013-07-01 20:35:00,76.6,70.3,29.89,ESE,107,2.0,4.0,81,0.00,,SCT,0.04,5.0,WeatherDisplay:10.37,2013-07-02 00:35:00,
2013-07-01 20:40:00,76.4,70.2,29.89,ESE,108,1.0,4.0,81,0.00,,SCT,0.04,0.0,WeatherDisplay:10.37,2013-07-02 00:40:00,
2013-07-01 20:45:00,76.3,70.4,29.89,ESE,114,1.0,4.0,82,0.00,,SCT,0.04,0.0,WeatherDisplay:10.37,2013-07-02 00:45:00,
2013-07-01 20:50:00,76.1,70.2,29.89,ESE,122,1.0,4.0,82,0.00,,SCT,0.04,0.0,WeatherDisplay:10.37,2013-07-02 00:50:00,
2013-07-01 20:55:00,76.0,70.5,29.89,SE,124,1.0,3.0,83,0.00,,SCT,0.04,0.0,WeatherDisplay:10.37,2013-07-02 00:55:00,
2013-07-01 21:00:00,75.9,70.4,29.90,SE,124,0.0,4.0,83,0.00,,SCT,0.04,0.0,WeatherDisplay:10.37,2013-07-02 01:00:00,
2013-07-01 21:05:00,75.8,70.3,29.90,SE,126,2.0,6.0,83,0.00,,SCT,0.04,0.0,WeatherDisplay:10.37,2013-07-02 01:05:00,
2013-07-01 21:10:00,75.7,70.2,29.90,SE,130,2.0,6.0,83,0.00,,SCT,0.04,0.0,WeatherDisplay:10.37,2013-07-02 01:10:00,
2013-07-01 21:15:00,75.6,70.5,29.91,SE,131,1.0,6.0,84,0.00,,SCT,0.04,0.0,WeatherDisplay:10.37,2013-07-02 01:15:00,
2013-07-01 21:20:00,75.6,70.4,29.91,SE,130,1.0,5.0,84,0.00,,SCT,0.04,0.0,WeatherDisplay:10.37,2013-07-02 01:20:00,
2013-07-01 21:25:00,75.5,70.3,29.91,SE,130,3.0,6.0,84,0.00,,SCT,0.04,0.0,WeatherDisplay:10.37,2013-07-02 01:25:00,
2013-07-01 21:30:00,75.5,70.3,29.91,SE,130,0.0,4.0,84,0.00,,SCT,0.04,0.0,WeatherDisplay:10.37,2013-07-02 01:30:00,
2013-07-01 21:35:00,75.4,70.2,29.91,SE,130,1.0,3.0,84,0.00,,SCT,0.04,0.0,WeatherDisplay:10.37,2013-07-02 01:35:00,
2013-07-01 21:40:00,75.4,70.2,29.92,SE,130,2.0,5.0,84,0.00,,SCT,0.04,0.0,WeatherDisplay:10.37,2013-07-02 01:40:00,
2013-07-01 21:45:00,75.3,70.1,29.92,SE,127,2.0,6.0,84,0.00,,SCT,0.04,0.0,WeatherDisplay:10.37,2013-07-02 01:45:00,
2013-07-01 21:50:00,75.2,70.0,29.92,SE,126,1.0,8.0,84,0.00,,SCT,0.04,0.0,WeatherDisplay:10.37,2013-07-02 01:50:00,
2013-07-01 21:55:00,75.1,70.3,29.92,SE,125,1.0,6.0,85,0.00,,SCT,0.04,0.0,WeatherDisplay:10.37,2013-07-02 01:55:00,
2013-07-01 22:00:00,75.1,70.3,29.92,SE,125,1.0,5.0,85,0.00,,SCT,0.04,0.0,WeatherDisplay:10.37,2013-07-02 02:00:00,
2013-07-01 22:05:00,75.1,70.3,29.92,SE,125,0.0,4.0,85,0.00,,SCT,0.04,0.0,WeatherDisplay:10.37,2013-07-02 02:05:00,
2013-07-01 22:10:00,75.0,70.2,29.92,SE,125,1.0,6.0,85,0.00,,SCT,0.04,0.0,WeatherDisplay:10.37,2013-07-02 02:10:00,
2013-07-01 22:15:00,74.9,70.1,29.92,SE,128,2.0,6.0,85,0.00,,SCT,0.04,0.0,WeatherDisplay:10.37,2013-07-02 02:15:00,
2013-07-01 22:20:00,74.9,70.0,29.92,SE,130,1.0,6.0,85,0.00,,SCT,0.04,0.0,WeatherDisplay:10.37,2013-07-02 02:20:00,
2013-07-01 22:25:00,74.8,70.0,29.92,SE,133,1.0,5.0,85,0.00,,SCT,0.04,0.0,WeatherDisplay:10.37,2013-07-02 02:25:00,
2013-07-01 22:30:00,74.7,69.9,29.93,SE,133,1.0,4.0,85,0.00,,SCT,0.04,0.0,WeatherDisplay:10.37,2013-07-02 02:30:00,
2013-07-01 22:35:00,74.6,69.8,29.93,SE,134,0.0,3.0,85,0.00,,SCT,0.04,0.0,WeatherDisplay:10.37,2013-07-02 02:35:00,
2013-07-01 22:40:00,74.6,70.1,29.93,SE,133,2.0,5.0,86,0.00,,SCT,0.04,0.0,WeatherDisplay:10.37,2013-07-02 02:40:00,
2013-07-01 22:50:00,74.5,70.0,29.93,SE,134,0.0,5.0,86,0.00,,SCT,0.04,0.0,WeatherDisplay:10.37,2013-07-02 02:50:00,
2013-07-01 22:55:00,74.4,69.9,29.94,SE,134,1.0,5.0,86,0.00,,SCT,0.04,0.0,WeatherDisplay:10.37,2013-07-02 02:55:00,
2013-07-01 23:00:00,74.4,69.9,29.94,SE,134,0.0,4.0,86,0.00,,SCT,0.04,0.0,WeatherDisplay:10.37,2013-07-02 03:00:00,
2013-07-01 23:05:00,74.4,70.3,29.94,SE,134,1.0,4.0,87,0.00,,SCT,0.04,0.0,WeatherDisplay:10.37,2013-07-02 03:05:00,
2013-07-01 23:10:00,74.4,70.3,29.94,SE,134,1.0,4.0,87,0.00,,SCT,0.04,0.0,WeatherDisplay:10.37,2013-07-02 03:10:00,
2013-07-01 23:15:00,74.3,70.2,29.94,SE,134,1.0,4.0,87,0.00,,SCT,0.04,0.0,WeatherDisplay:10.37,2013-07-02 03:15:00,
2013-07-01 23:20:00,74.3,70.2,29.94,SE,134,1.0,3.0,87,0.00,,SCT,0.04,0.0,WeatherDisplay:10.37,2013-07-02 03:20:00,
2013-07-01 23:25:00,74.2,70.1,29.94,SE,134,2.0,5.0,87,0.00,,SCT,0.04,0.0,WeatherDisplay:10.37,2013-07-02 03:25:00,
2013-07-01 23:30:00,74.2,70.1,29.93,SE,134,0.0,4.0,87,0.00,,SCT,0.04,0.0,WeatherDisplay:10.37,2013-07-02 03:30:00,
2013-07-01 23:35:00,74.2,70.1,29.94,SE,134,1.0,4.0,87,0.00,,SCT,0.04,0.0,WeatherDisplay:10.37,2013-07-02 03:35:00,
2013-07-01 23:45:00,74.1,70.0,29.94,SE,134,1.0,6.0,87,0.00,,SCT,0.04,0.0,WeatherDisplay:10.37,2013-07-02 03:45:00,
2013-07-01 23:50:00,74.1,69.6,29.93,SE,135,1.0,6.0,86,0.00,,SCT,0.04,0.0,WeatherDisplay:10.37,2013-07-02 03:50:00,
2013-07-01 23:55:00,74.0,69.6,29.94,SE,136,3.0,6.0,86,0.00,,SCT,0.04,0.0,WeatherDisplay:10.37,2013-07-02 03:55:00,